Location: Bathurst
(33.4193°S, 149.5775°E)
Time: 07:09:24
(UTC+11:00)

ELECTRON R/B - Visible Passes

Search period start: 20 February 2018 00:00
Search period end: 02 March 2018 00:00
Orbit: 289 x 517 km, 82.9° (Epoch: 18 February)

Date Brightness Start Highest point End Pass type
(mag) Time Alt. Az. Time Alt. Az. Time Alt. Az.
20 Feb 7.1 21:16:24 10° SSE 21:18:31 21° SE 21:18:31 21° SE visible
20 Feb 8.6 22:50:17 10° SW 22:51:13 13° WSW 22:51:13 13° WSW visible
21 Feb 6.7 21:59:05 10° SSW 22:01:46 40° SSW 22:01:46 40° SSW visible
22 Feb 6.4 21:09:18 10° SSE 21:12:15 30° ESE 21:12:15 30° ESE visible
22 Feb 8.6 22:44:14 10° WSW 22:44:57 11° WSW 22:44:57 11° WSW visible
23 Feb 6.5 21:52:10 10° SSW 21:55:24 42° WSW 21:55:24 42° WSW visible
24 Feb 5.8 21:01:59 10° S 21:05:33 40° E 21:05:49 39° E visible
25 Feb 7.4 20:13:57 10° ESE 20:14:53 11° ESE 20:15:47 10° E visible
25 Feb 6.9 21:45:01 10° SSW 21:48:22 32° W 21:48:54 30° WNW visible
26 Feb 5.4 20:54:26 10° S 20:58:04 53° E 20:59:15 34° NE visible
27 Feb 7.2 20:05:29 10° SE 20:07:19 13° ESE 20:09:05 10° ENE visible
27 Feb 7.5 21:37:39 10° SSW 21:40:38 24° W 21:42:16 17° NW visible
28 Feb 5.1 20:46:38 10° S 20:50:16 71° E 20:52:36 19° NNE visible
01 Mar 8.0 21:30:05 10° SW 21:32:36 18° W 21:34:58 10° NW visible
